Weather History for Van, Turkey

Change the Weather History Date:

Wednesday, December 12, 2012

  Actual Average Record
Temperature  
Mean Temperature 38 °F -  
Max Temperature 44 °F 37 °F 48 °F (2005)
Min Temperature 32 °F 21 °F 5 °F (2004)
Degree Days  
Heating Degree Days 27    
Moisture  
Dew Point 31 °F    
Average Humidity 79    
Maximum Humidity 93    
Minimum Humidity 50    
Precipitation  
Precipitation 0.00 in 0.04 in - ()
Sea Level Pressure  
Sea Level Pressure 30.10 in    
Wind  
Wind Speed 4 mph ()    
Max Wind Speed 7 mph    
Max Gust Speed 20 mph    
Visibility 6.2 miles    
Events      
Averages and records for this station are not official NWS values.
T = Trace of Precipitation, MM = Missing Value Source: Averaged Metar Reports

Daily Weather History Graph

Daily Weather History Graph

Search for Another Location

Airport:

Trip Planner

Search our weather history database for the weather conditions in past years. The results will help you decide how hot, cold, wet, or windy it might be!

Date:

Astronomy

Dec. 12, 2012 Rise Set
Actual Time 6:14 AM EET 3:46 PM EET
Civil Twilight 5:45 AM EET 4:15 PM EET
Nautical Twilight 5:11 AM EET 4:48 PM EET
Astronomical Twilight 4:39 AM EET 5:21 PM EET
Moon 4:54 AM EET (12/12) 3:00 PM EET (12/12)
Length of Visible Light 10h 30m
Length of Day
9h 31m
Waning Crescent, 1% of the Moon is Illuminated
Dec 12
Waning Crescent
Dec 13
New
Dec 20
First Quarter
Dec 28
Full
Jan 5
Last Quarter

Hourly Weather History & Observations

Time (EET) Temp. Windchill Dew Point Humidity Pressure Visibility Wind Dir Wind Speed Gust Speed Precip Events Conditions
12:50 AM 35.6 °F 29.9 °F 33.8 °F 93% 30.01 in 6.2 mi South 6.9 mph - N/A   Mostly Cloudy
1:50 AM 35.6 °F 32.8 °F 33.8 °F 93% 30.04 in 6.2 mi East 3.5 mph - N/A   Mostly Cloudy
2:00 AM 35 °F - 34 °F 92%  in 6 mi East 3.5 mph - -   Partly Cloudy
2:50 AM 35.6 °F 31.7 °F 32.0 °F 87% 30.04 in 6.2 mi ENE 4.6 mph - N/A   Mostly Cloudy
3:50 AM 33.8 °F 29.6 °F 32.0 °F 93% 30.06 in 6.2 mi ENE 4.6 mph - N/A   Mostly Cloudy
4:50 AM 33.8 °F 30.8 °F 32.0 °F 93% 30.06 in 6.2 mi ENE 3.5 mph - N/A   Mostly Cloudy
5:50 AM 33.8 °F 28.6 °F 32.0 °F 93% 30.09 in 6.2 mi NNE 5.8 mph - N/A   Mostly Cloudy
6:50 AM 35.6 °F 30.7 °F 30.2 °F 81% 30.12 in 6.2 mi ENE 5.8 mph - N/A   Mostly Cloudy
7:50 AM 39.2 °F 37.0 °F 32.0 °F 75% 30.12 in 6.2 mi NE 3.5 mph - N/A   Mostly Cloudy
8:00 AM 39 °F - 31 °F 64%  in 7 mi NE 3.5 mph - -   Partly Cloudy
8:50 AM 41.0 °F 39.0 °F 30.2 °F 65% 30.12 in 6.2 mi SSW 3.5 mph - N/A   Scattered Clouds
9:50 AM 42.8 °F 41.1 °F 28.4 °F 57% 30.12 in 6.2 mi West 3.5 mph - N/A   Scattered Clouds
10:50 AM 44.6 °F 41.4 °F 30.2 °F 57% 30.12 in 6.2 mi West 5.8 mph - N/A   Scattered Clouds
11:50 AM 42.8 °F 38.6 °F 30.2 °F 61% 30.12 in 6.2 mi NW 6.9 mph - N/A   Scattered Clouds
12:50 PM 42.8 °F 38.6 °F 32.0 °F 66% 30.12 in 6.2 mi WNW 6.9 mph 19.6 mph N/A   Scattered Clouds
1:50 PM 42.8 °F 40.1 °F 32.0 °F 66% 30.12 in 6.2 mi WNW 4.6 mph - N/A   Scattered Clouds
2:00 PM 43 °F - 31 °F 50%  in 6 mi WNW 4.6 mph - -   Partly Cloudy
2:50 PM 42.8 °F 40.1 °F 32.0 °F 66% 30.12 in 6.2 mi NW 4.6 mph - N/A   Scattered Clouds
3:50 PM 41.0 °F 36.4 °F 32.0 °F 70% 30.12 in 6.2 mi NNW 6.9 mph - N/A   Scattered Clouds
4:50 PM 39.2 °F 37.0 °F 30.2 °F 70% 30.15 in 6.2 mi SE 3.5 mph - N/A   Scattered Clouds
5:50 PM 35.6 °F - 30.2 °F 81% 30.12 in 6.2 mi Variable 2.3 mph - N/A   Scattered Clouds
6:50 PM 32.0 °F 26.4 °F 30.2 °F 93% 30.12 in 6.2 mi ENE 5.8 mph - N/A   Scattered Clouds
7:50 PM 32.0 °F 27.5 °F 30.2 °F 93% 30.12 in 6.2 mi ENE 4.6 mph - N/A   Scattered Clouds
8:00 PM 32 °F - 29 °F 86%  in 6 mi ENE 4.6 mph - -   Partly Cloudy
8:50 PM 32.0 °F 27.5 °F 30.2 °F 93% 30.12 in 6.2 mi ENE 4.6 mph - N/A   Scattered Clouds
9:50 PM 32.0 °F 27.5 °F 28.4 °F 87% 30.12 in 6.2 mi East 4.6 mph - N/A   Scattered Clouds
10:50 PM 32.0 °F 28.7 °F 28.4 °F 87% 30.12 in 6.2 mi ENE 3.5 mph - N/A   Scattered Clouds
11:50 PM 32.0 °F 27.5 °F 28.4 °F 87% 30.12 in 6.2 mi ENE 4.6 mph - N/A   Scattered Clouds